Dutch Harbor, AK

5:16 AM AKDT on April 25, 2017 (GMT -0800)
Unalaska

Weather History for PADU - January, 2013

Change the Weather History Date:

Sunday, January 6, 2013

  Actual Average Record
Temperature  
Mean Temperature 35 °F -  
Max Temperature 37 °F 37 °F 46 °F (1991)
Min Temperature 33 °F 26 °F 15 °F (1986)
Degree Days  
Heating Degree Days 30    
Moisture  
Dew Point 29 °F    
Average Humidity 74    
Maximum Humidity 89    
Minimum Humidity 65    
Precipitation  
Precipitation 0.01 in - - ()
Sea Level Pressure  
Sea Level Pressure 29.15 in    
Wind  
Wind Speed 8 mph (NNW)    
Max Wind Speed 18 mph    
Max Gust Speed 23 mph    
Visibility 10 miles    
Events Rain    
Averages and records for this station are not official NWS values.
T = Trace of Precipitation, MM = Missing Value Source: NWS Daily Summary

Daily Weather History Graph

Daily Weather History Graph

Search for Another Location

Airport or City:

Trip Planner

Search our weather history database for the weather conditions in past years. The results will help you decide how hot, cold, wet, or windy it might be!

Date:

Astronomy

Jan. 06, 2013 Rise Set
Actual Time 10:22 AM AKST 6:02 PM AKST
Civil Twilight 9:39 AM AKST 6:44 PM AKST
Nautical Twilight 8:54 AM AKST 7:30 PM AKST
Astronomical Twilight 8:11 AM AKST 8:13 PM AKST
Moon 4:32 AM AKST (1/6) 1:54 PM AKST (1/6)
Length of Visible Light 9h 05m
Length of Day
7h 39m
Waning Crescent, 31% of the Moon is Illuminated
Jan 6
Waning Crescent
Jan 11
New
Jan 18
First Quarter
Jan 26
Full
Feb 3
Last Quarter

Hourly Weather History & Observations

Time (AKST) Temp. Windchill Dew Point Humidity Pressure Visibility Wind Dir Wind Speed Gust Speed Precip Events Conditions
12:56 AM 37.0 °F 31.6 °F 26.1 °F 65% 29.01 in 10.0 mi NNE 6.9 mph - N/A   Overcast
1:18 AM 37.4 °F 30.8 °F 30.2 °F 75% 28.99 in 10.0 mi NNW 9.2 mph - N/A   Overcast
1:56 AM 37.0 °F 31.0 °F 28.0 °F 70% 29.02 in 10.0 mi North 8.1 mph - N/A   Overcast
2:56 AM 37.9 °F 32.7 °F 28.9 °F 70% 29.01 in 10.0 mi Variable 6.9 mph - N/A   Overcast
3:56 AM 36.0 °F 28.0 °F 27.0 °F 70% 29.02 in 10.0 mi East 11.5 mph 17.3 mph 0.00 in Rain Light Rain
4:56 AM 37.0 °F 32.4 °F 28.0 °F 70% 29.04 in 10.0 mi East 5.8 mph - 0.00 in   Overcast
5:20 AM 37.4 °F 30.8 °F 28.4 °F 70% 29.03 in 10.0 mi NNW 9.2 mph 17.3 mph 0.00 in   Overcast
5:56 AM 37.0 °F 29.8 °F 28.9 °F 73% 29.05 in 10.0 mi NNW 10.4 mph 19.6 mph 0.00 in   Overcast
6:56 AM 36.0 °F 28.0 °F 30.9 °F 82% 29.06 in 10.0 mi WNW 11.5 mph - 0.00 in   Overcast
7:29 AM 37.4 °F 27.5 °F 28.4 °F 70% 29.05 in 10.0 mi NNW 18.4 mph - N/A   Overcast
7:56 AM 37.0 °F 29.3 °F 28.0 °F 70% 29.07 in 10.0 mi NNW 11.5 mph - N/A   Overcast
8:50 AM 37.4 °F 32.1 °F 26.6 °F 65% 29.07 in 10.0 mi North 6.9 mph 23.0 mph N/A   Overcast
8:56 AM 37.0 °F 28.9 °F 27.0 °F 67% 29.09 in 10.0 mi North 12.7 mph - N/A   Overcast
9:56 AM 36.0 °F 29.0 °F 28.9 °F 76% 29.11 in 10.0 mi North 9.2 mph - N/A   Overcast
10:56 AM 37.0 °F 31.0 °F 28.9 °F 73% 29.13 in 10.0 mi NNW 8.1 mph - N/A   Mostly Cloudy
11:47 AM 37.4 °F 32.8 °F 28.4 °F 70% 29.13 in 10.0 mi NNW 5.8 mph - N/A   Overcast
11:56 AM 37.0 °F 31.0 °F 28.9 °F 73% 29.15 in 10.0 mi NNW 8.1 mph - N/A   Mostly Cloudy
12:56 PM 37.9 °F 32.1 °F 28.0 °F 68% 29.16 in 10.0 mi WNW 8.1 mph - N/A   Mostly Cloudy
1:56 PM 37.0 °F 31.6 °F 28.9 °F 73% 29.17 in 10.0 mi West 6.9 mph - N/A   Mostly Cloudy
2:56 PM 37.0 °F 32.4 °F 28.9 °F 73% 29.18 in 10.0 mi WSW 5.8 mph - N/A   Mostly Cloudy
3:56 PM 36.0 °F - 27.0 °F 70% 29.20 in 10.0 mi Calm Calm - N/A   Overcast
4:56 PM 35.1 °F - 28.0 °F 76% 29.21 in 10.0 mi Calm Calm - N/A   Mostly Cloudy
5:56 PM 37.0 °F 32.4 °F 28.0 °F 70% 29.24 in 10.0 mi West 5.8 mph - N/A   Overcast
6:56 PM 37.0 °F 31.0 °F 28.0 °F 70% 29.26 in 10.0 mi West 8.1 mph - N/A   Overcast
7:56 PM 36.0 °F 29.0 °F 28.9 °F 76% 29.28 in 8.0 mi NNE 9.2 mph - 0.00 in Rain Light Rain
8:03 PM 35.6 °F 29.2 °F 30.2 °F 81% 29.27 in 4.0 mi North 8.1 mph - 0.00 in Rain Light Rain
8:26 PM 33.8 °F 30.8 °F 30.2 °F 87% 29.28 in 5.0 mi ESE 3.5 mph - 0.01 in Rain Light Rain
8:56 PM 34.0 °F - 30.9 °F 89% 29.31 in 10.0 mi Calm Calm - 0.01 in Rain Light Rain
9:56 PM 34.0 °F - 30.0 °F 85% 29.33 in 10.0 mi Calm Calm - 0.00 in   Overcast
10:56 PM 34.0 °F - 28.9 °F 82% 29.35 in 10.0 mi Calm Calm - N/A   Overcast
11:56 PM 33.1 °F - 28.9 °F 85% 29.37 in 10.0 mi Calm Calm - N/A   Partly Cloudy